File rrd.log content, last update Saturday October 31 2020, 13:02:02


Recovered from approx. 180 seconds network outage.
Temperature [29.40] outlier detection OK.
Humidity [22.43] outlier detection OK.
Pressure [102179.75] outlier detection OK.
/srv/app/pi-web01/bin/daytcalc -t 1604116926 -x 139.628999 -y 35.610381 -s Asia/Tokyo
daytcalc 1604116926 returned [0] [day].
/usr/bin/rrdtool update /srv/app/pi-web01/chroot/pi-ws01/rrd/pi-ws01.rrd 1604116926:29.40:22.43:102179.75:0
return_value = 0
[1604116800]RRA[AVERAGE][1]DS[temp] = 2.9392000000e+01
[1604116800]RRA[AVERAGE][1]DS[humi] = 2.2424666667e+01
[1604116800]RRA[AVERAGE][1]DS[bmpr] = 1.0217984433e+05
[1604116800]RRA[AVERAGE][1]DS[dayt] = 0.0000000000e+00
[1604116920]RRA[AVERAGE][1]DS[temp] = 2.9392000000e+01
[1604116920]RRA[AVERAGE][1]DS[humi] = 2.2424666667e+01
[1604116920]RRA[AVERAGE][1]DS[bmpr] = 1.0217984433e+05
[1604116920]RRA[AVERAGE][1]DS[dayt] = 0.0000000000e+00
[1604116980]RRA[AVERAGE][1]DS[temp] = 2.9392000000e+01
[1604116980]RRA[AVERAGE][1]DS[humi] = 2.2424666667e+01
[1604116980]RRA[AVERAGE][1]DS[bmpr] = 1.0217984433e+05
[1604116980]RRA[AVERAGE][1]DS[dayt] = 0.0000000000e+00
[1604116800]RRA[AVERAGE][60]DS[temp] = 2.9197297222e+01
[1604116800]RRA[AVERAGE][60]DS[humi] = 2.2033844444e+01
[1604116800]RRA[AVERAGE][60]DS[bmpr] = 1.0220545648e+05
[1604116800]RRA[AVERAGE][60]DS[dayt] = 0.0000000000e+00
[1604116800]RRA[MIN][60]DS[temp] = 2.7930000000e+01
[1604116800]RRA[MIN][60]DS[humi] = 2.0451500000e+01
[1604116800]RRA[MIN][60]DS[bmpr] = 1.0217984433e+05
[1604116800]RRA[MIN][60]DS[dayt] = 0.0000000000e+00
[1604116800]RRA[MAX][60]DS[temp] = 3.2112500000e+01
[1604116800]RRA[MAX][60]DS[humi] = 2.2986000000e+01
[1604116800]RRA[MAX][60]DS[bmpr] = 1.0223056300e+05
[1604116800]RRA[MAX][60]DS[dayt] = 0.0000000000e+00
cp /srv/app/pi-web01/chroot/pi-ws01/var/raspidat.htm /srv/www/weather/pi-ws01/raspidat.htm
cp /srv/app/pi-web01/chroot/pi-ws01/var/raspicam.jpg /srv/www/weather/pi-ws01/images/raspicam.jpg
Checking for solar integration: /srv/app/pi-web01/chroot/pi-ws01/etc/pi-solar.conf
Calling: ( /srv/app/pi-web01/bin/solarupdate.sh pi-ws01 > /srv/app/pi-web01/chroot/pi-ws01/log/pi-solar.log 2>&1 ) &
Creating image /srv/www/weather/pi-ws01/images/daily_temp.png... 700x150
Creating image /srv/www/weather/pi-ws01/images/daily_humi.png... 700x150
Creating image /srv/www/weather/pi-ws01/images/daily_bmpr.png... 700x150
rrdupdate.sh: End of script at Sat Oct 31 13:02:02 JST 2020
Showing last 40 lines from file [/srv/app/pi-web01/chroot/pi-ws01/log/rrd.log] (49 total lines).

Station Logs

File Name
sensor.txt
backup.txt
outage.log
outlier.log
rrd.log
pi-solar.log
Display Limit